Back to catalog

ATLAS CENTAUR R/B

AliveMEO
NORAD 43341·ROCKET BODY·🇺🇸 United States

Launched Apr 14, 2018 from Cape Canaveral Space Force Station

Loading…

Next Passes (next 24 hours)

TLE

FreshSource: Space-Track

Epoch: Sep 13, 2026, 19:48 UTC

1 43341U 18036C   26256.82535722 -.00000140  00000-0  00000-0 0  9994
2 43341   6.9024  63.0770 0443914 209.7282 147.8515  1.08308769 27749

Track ATLAS CENTAUR R/B in real time with AllMySat

Download on the App Store